Location: Newark
(43.6583°N, 1.6617°E)
Time: 22:23:41
(UTC+00:00)

Vanguard 1 Rocket - Pass Details

Date: 19 August 2019
Orbit: 651 x 4225 km, 34.3° (Epoch: 20 September)

Event Time Altitude Azimuth Distance (km) Brightness Sun altitude
Rises 03:56:47 0° 242° (WSW) 3,090 - -11.5°
Reaches altitude 10° 03:58:57 10° 233° (SW) 2,317 - -11.2°
Exits shadow 03:59:38 14° 228° (SW) 2,102 8.6 -11.1°
Maximum altitude 04:03:43 36° 166° (SSE) 1,541 8.4 -10.4°
Drops below altitude 10° 04:11:20 10° 104° (ESE) 3,716 11.3 -9.2°
Sets 04:15:48 0° 97° (E) 5,288 12.3 -8.5°
